Muscle Shoals, AL

11:15 PM CDT on September 23, 2017 (GMT -0500)
Northwest Alabama Regional

Weather History for KMSL - July, 2013

Change the Weather History Date:

Tuesday, July 9, 2013

  Actual Average Record
Temperature  
Mean Temperature 82 °F 80 °F  
Max Temperature 92 °F 91 °F 101 °F (1969)
Min Temperature 71 °F 70 °F 51 °F (1896)
Degree Days  
Heating Degree Days 0 0  
Month to date heating degree days 0 0  
Since 1 June heating degree days 0 1  
Since 1 July heating degree days 0 0  
Cooling Degree Days 17 15  
Month to date cooling degree days 107 135  
Year to date cooling degree days 753 741  
Since 1 June cooling degree days 513 497  
Growing Degree Days 31 (Base 50)    
Moisture  
Dew Point 72 °F    
Average Humidity 75    
Maximum Humidity 93    
Minimum Humidity 56    
Precipitation  
Precipitation 0.00 in 0.16 in 2.73 in (1940)
Month to date precipitation 3.37 1.39  
Year to date precipitation 32.96 29.65  
Snow  
Snow 0.00 in - - ()
Month to date snowfall 0.0  
Since 1 June snowfall 0.0  
Since 1 July snowfall 0.0  
Snow Depth 0.00 in    
Sea Level Pressure  
Sea Level Pressure 30.11 in    
Wind  
Wind Speed 4 mph (WSW)    
Max Wind Speed 17 mph    
Max Gust Speed 21 mph    
Visibility 10 miles    
Events      
T = Trace of Precipitation, MM = Missing Value Source: NWS Daily Summary

Daily Weather History Graph

Daily Weather History Graph

Search for Another Location

Airport or City:

Trip Planner

Search our weather history database for the weather conditions in past years. The results will help you decide how hot, cold, wet, or windy it might be!

Date:

Astronomy

Jul. 09, 2013 Rise Set
Actual Time 5:44 AM CDT 8:06 PM CDT
Civil Twilight 5:15 AM CDT 8:35 PM CDT
Nautical Twilight 4:39 AM CDT 9:11 PM CDT
Astronomical Twilight 4:00 AM CDT 9:50 PM CDT
Moon 7:03 AM CDT (7/9) 8:50 PM CDT (7/9)
Length of Visible Light 15h 19m
Length of Day
14h 21m
New Moon, 2% of the Moon is Illuminated
Jul 9
New Moon
Jul 15
First Quarter
Jul 22
Full
Jul 29
Last Quarter
Aug 6
New

Hourly Weather History & Observations

Time (CDT) Temp. Heat Index Dew Point Humidity Pressure Visibility Wind Dir Wind Speed Gust Speed Precip Events Conditions
12:53 AM 73.9 °F - 71.1 °F 91% 30.13 in 10.0 mi Calm Calm - N/A   Clear
1:53 AM 73.0 °F - 70.0 °F 90% 30.12 in 10.0 mi Calm Calm - N/A   Clear
2:53 AM 72.0 °F - 69.1 °F 91% 30.12 in 10.0 mi Calm Calm - N/A   Clear
3:53 AM 73.0 °F - 70.0 °F 90% 30.13 in 10.0 mi Calm Calm - N/A   Clear
4:53 AM 73.0 °F - 70.0 °F 90% 30.14 in 10.0 mi Calm Calm - N/A   Clear
5:53 AM 71.1 °F - 68.0 °F 90% 30.14 in 10.0 mi Calm Calm - N/A   Clear
6:06 AM 71.6 °F - 68.0 °F 88% 30.16 in 10.0 mi Calm Calm - N/A   Partly Cloudy
6:53 AM 75.0 °F - 71.1 °F 87% 30.16 in 10.0 mi Calm Calm - N/A   Clear
7:53 AM 79.0 °F - 73.0 °F 82% 30.16 in 10.0 mi SW 3.5 mph - N/A   Clear
8:53 AM 82.9 °F 89.4 °F 73.9 °F 74% 30.16 in 10.0 mi Calm Calm - N/A   Clear
9:53 AM 84.9 °F 91.4 °F 73.0 °F 67% 30.16 in 10.0 mi West 6.9 mph - N/A   Scattered Clouds
10:34 AM 84.2 °F 90.9 °F 73.4 °F 70% 30.18 in 10.0 mi WNW 8.1 mph - N/A   Mostly Cloudy
10:53 AM 87.1 °F 95.4 °F 73.9 °F 65% 30.16 in 10.0 mi West 9.2 mph - N/A   Mostly Cloudy
11:53 AM 88.0 °F 95.6 °F 73.0 °F 61% 30.15 in 10.0 mi West 9.2 mph - N/A   Partly Cloudy
12:53 PM 89.1 °F 96.0 °F 72.0 °F 57% 30.13 in 10.0 mi WSW 8.1 mph - N/A   Partly Cloudy
1:53 PM 90.0 °F 97.9 °F 73.0 °F 57% 30.11 in 10.0 mi West 8.1 mph - N/A   Partly Cloudy
2:53 PM 91.0 °F 99.3 °F 73.0 °F 55% 30.10 in 10.0 mi Calm Calm - N/A   Mostly Cloudy
3:53 PM 90.0 °F 97.9 °F 73.0 °F 57% 30.08 in 10.0 mi WSW 11.5 mph - N/A   Scattered Clouds
4:53 PM 89.1 °F 96.0 °F 72.0 °F 57% 30.06 in 10.0 mi WSW 8.1 mph - N/A   Mostly Cloudy
5:53 PM 90.0 °F 96.9 °F 72.0 °F 55% 30.04 in 10.0 mi WSW 8.1 mph - N/A   Clear
6:53 PM 89.1 °F 95.0 °F 71.1 °F 55% 30.04 in 10.0 mi WSW 5.8 mph - N/A   Clear
7:53 PM 86.0 °F 92.2 °F 72.0 °F 63% 30.05 in 10.0 mi Calm Calm - N/A   Clear
8:53 PM 82.0 °F 87.9 °F 73.9 °F 76% 30.06 in 10.0 mi SSE 5.8 mph - N/A   Clear
9:53 PM 80.1 °F 84.5 °F 73.9 °F 81% 30.09 in 10.0 mi SE 4.6 mph - N/A   Partly Cloudy
10:53 PM 79.0 °F - 75.0 °F 88% 30.08 in 10.0 mi South 3.5 mph - N/A   Clear
11:53 PM 78.1 °F - 73.9 °F 87% 30.07 in 10.0 mi Calm Calm - N/A   Clear